BUGSAT 1

导读

**BUGSAT 1卫星**由阿根廷于**2014年6月19日**发射升空,是拉美航天发展进程中的一颗小型卫星。阿根廷作为拉美地区航天起步较早的国家,早在上世纪中期就开启了火箭相关技术探索,BUGSAT 1的发射是其航天探索的阶段性实践,承载着阿根廷在航天领域自主探索的尝试,丰富了拉美地区的太空实践积累。

基本信息
目录编号:
40014
目录名称:
BUGSAT 1
国际标识:
2014-033E
轨道中心:
EARTH
卫星名称:
BUGSAT 1
卫星全名:
--
卫星状态:
在轨 (已飞行4461 天)
发射日期:
2014-06-19 UTC
国别 :
阿根廷 (AR)
星等 :
--
轨道信息
数据来源 国际轨道数据
星历时间: 2026-09-05T21:30:47+0800
7小时前
查看轨道信息
半长轴: 6895.19km
偏心率: 0.002614
轨道倾角: 98.041°
近地点辐角 265.903°
升交点赤经 345.855°
平近点角 93.922°
近地点: 499.028km
远地点: 535.078km
周期: 94.968分钟
每日圈数: 15.162941
详细信息
使用方式:
暂无
2D轨道图
3D轨道图
轨道高度分析图
轨道倾角分析图
轨道综合分析图
查看轨道综合分析图
交会数据列表
事件ID 空间交会对象 最接近时刻(TCA) 交会距离 交会风险概率(CRP) 交会风险指数(CRI) 操作
CDM_260907-203304-001406-667122
BUGSAT 1 (40014)
2026-09-07T
20:33:04+0000
2.395 km
极远距离
7.947836E-7 极低风险 0.33